Regional Weather Roundup
Issued by NWS San Angelo, TX

Home | Current Version | Previous Version | Text Only | Print | Product List | Glossary On
Versions: 1 2 3 4 5 6 7 8 9 10 11 12 13 14 15 16 17 18 19 20 21 22 23 24 25 26 27 28 29 30 31 32 33 34 35 36 37 38 39 40 41 42 43 44 45 46 47 48 49 50
000
ASUS44 KSJT 060210
RWRSJT
WEST CENTRAL TEXAS REGIONAL WEATHER ROUNDUP
NATIONAL WEATHER SERVICE SAN ANGELO TX
800 PM CST THU MAR 05 2015

NOTE: "FAIR" INDICATES FEW OR NO CLOUDS BELOW 12,000 FEET WITH NO
SIGNIFICANT WEATHER AND/OR OBSTRUCTIONS TO VISIBILITY.

TXZ049-054-064>066-071>073-076>078-098-099-113-114-127-128-139-140-
154-155-168>170-060300
...LOCATIONS ACROSS WEST CENTRAL TEXAS...

CITY           SKY/WX    TMP DP  RH WIND       PRES   REMARKS
SAN ANGELO     CLEAR     35  22  58 E5        30.51S WCI  31
ABILENE        CLEAR     37  19  48 E5        30.52S WCI  33
DYESS AFB      CLEAR     35  22  58 SE3       30.50F
JUNCTION       CLEAR     34  24  67 N6        30.52R WCI  29
SWEETWATER     CLEAR     37  19  48 CALM      30.51S
BROWNWOOD      MOCLDY    32  27  80 E3        30.55R
COLEMAN        CLEAR     36  24  62 CALM      30.53R
SONORA         CLEAR     37  21  52 E5        30.55R WCI  34
OZONA          FAIR      37  18  44 E8        30.52R WCI  31
BRADY          CLEAR     34  21  60 E3        30.52R
$$

TEXAS PANHANDLE/OKLAHOMA PANHANDLE

CITY           SKY/WX    TMP DP  RH WIND       PRES   REMARKS
AMARILLO       CLEAR     34  25  69 S12       30.37R WCI  25
BORGER         PTCLDY    41  21  44 S9        30.36R WCI  35
CANADIAN       CLEAR     37  27  67 SW8       30.38R WCI  31
DALHART        CLEAR     32  21  64 S6        30.33R WCI  26
DUMAS          CLEAR     31  17  56 S9        30.33S WCI  23
GUYMON         NOT AVBL
HEREFORD       CLEAR     32  26  77 S8        30.36S WCI  25
PAMPA          CLEAR     32  27  80 S12       30.37R WCI  23
PERRYTON         N/A     33  20  58 S7        30.34S WCI  27
$$

SOUTHERN PANHANDLE/SOUTH PLAINS/ROLLING PLAINS

CITY           SKY/WX    TMP DP  RH WIND       PRES   REMARKS
LUBBOCK        CLEAR     34  25  69 S9        30.41R WCI  27
SNYDER         CLEAR     33  21  62 SE9       30.48S WCI  25
CHILDRESS      CLEAR     35  23  61 SW7       30.47R WCI  29
SEMINOLE       CLEAR     33  26  75 CALM      30.44S
$$

PERMIAN BASIN

CITY           SKY/WX    TMP DP  RH WIND       PRES   REMARKS
MIDLAND        CLEAR     38  23  55 S6        30.45S WCI  33
ODESSA         CLEAR     36  22  56 S6        30.46R WCI  31
WINK           CLEAR     35  26  69 SW7       30.45R WCI  29
$$

FAR WEST/SOUTHWEST MOUNTAINS/TRANS PECOS

CITY           SKY/WX    TMP DP  RH WIND       PRES   REMARKS
ALPINE         CLOUDY    31  29  93 E3        30.47R
DRYDEN           N/A     41  26  55 SE6       30.48R WCI  37
EL PASO        CLEAR     46  21  37 S6        30.35R
FORT STOCKTON  CLEAR     30  26  85 SW6       30.47R WCI  24
GUADALUPE PASS NOT AVBL
MARFA          CLEAR     30  27  86 NE8       30.40R WCI  23
PECOS          CLEAR     32  28  84 S3        30.48F
$$

DALLAS/FORT WORTH METROPLEX

CITY           SKY/WX    TMP DP  RH WIND       PRES   REMARKS
DFW AIRPORT    CLEAR     35  21  56 S3        30.58R
FTW MEACHAM    FAIR      36  23  59 S3        30.57R
DAL-EXECUTIVE  CLEAR     29  22  75 CALM      30.58R
GRAND PRAIRIE  CLEAR     36  23  59 CALM      30.60R
ADDISON        NOT AVBL
MESQUITE       CLEAR     34  27  75 CALM      30.60R
LANCASTER      CLEAR     31  24  73 CALM      30.61R
$$

NORTH CENTRAL TEXAS

CITY           SKY/WX    TMP DP  RH WIND       PRES   REMARKS
SHRMAN/DENISON CLEAR     35  25  66 CALM      30.58R
GAINESVILLE    CLEAR     34  21  58 CALM      30.59R
BRIDGEPORT     CLEAR     29  28  95 CALM      30.59R
DENTON         CLEAR     34  22  61 S3        30.58R
WAXAHACHIE     FAIR      32  22  67 CALM      30.60R
GRANBURY       FAIR      33  22  64 S5        30.59S WCI  28
$$

WESTERN NORTH TEXAS

CITY           SKY/WX    TMP DP  RH WIND       PRES   REMARKS
WICHITA FALLS  CLEAR     31  20  63 S8        30.54R WCI  23
VERNON         PTCLDY    35  20  54 S8        30.52R WCI  28
BRECKENRIDGE   CLEAR     36  24  64 CALM      30.55S
COMANCHE       CLEAR     34  21  60 CALM      30.55R
$$

CENTRAL AND SOUTH CENTRAL TEXAS

CITY           SKY/WX    TMP DP  RH WIND       PRES   REMARKS
AUSTIN/BERGSTM PTCLDY    32  21  64 N9        30.57R WCI  24
WACO           CLEAR     30  22  72 N6        30.59R WCI  24
HILLSBORO      CLEAR     32  21  65 CALM      30.59R
TEMPLE         CLEAR     30  19  64 N7        30.57R WCI  23
KILLEEN-GRAY   CLEAR     31  20  65 N10       30.55R WCI  22
FORT HOOD      CLEAR     34  20  58 N8        30.55R WCI  27
GEORGETOWN     CLEAR     34  19  55 N5        30.57R WCI  30
LAGO VISTA     FAIR      33  23  66 NE6       30.55R WCI  28
SAN MARCOS     CLEAR     36  19  51 N7        30.57R WCI  30
NEW BRAUNFELS  CLEAR     39  21  48 N10       30.54R WCI  32
RANDOLPH AFB   CLEAR     40  20  45 N8        30.55R WCI  34
SAN ANTONIO    PTCLDY    41  21  44 N6        30.55R WCI  37
STINSON        CLEAR     43  21  41 N9        30.54R WCI  38
PLEASANTON     NOT AVBL
LA GRANGE      CLEAR     40  28  61 N8        30.53R WCI  35
GIDDINGS       CLEAR     37  26  63 N9        30.59R WCI  30
$$

EAST TEXAS

CITY           SKY/WX    TMP DP  RH WIND       PRES   REMARKS
PARIS          FAIR      36  18  48 N6        30.57R WCI  31
CLARKSVILLE    NOT AVBL
TYLER          CLEAR     34  24  67 NW5       30.56R WCI  30
LONGVIEW       CLEAR     34  25  69 CALM      30.55R
PALESTINE      CLEAR     34  24  68 N3        30.58R
NACOGDOCHES    CLEAR     34  19  55 NE3       30.56R
$$

TEXAS HILL COUNTRY AND EDWARDS PLATEAU

CITY           SKY/WX    TMP DP  RH WIND       PRES   REMARKS
LLANO          CLEAR     34  23  64 CALM      30.60R
HORSESHOE BAY  FAIR      33  24  69 CALM      30.57R
KERRVILLE      CLEAR     34  23  63 NE5       30.54R WCI  30
FREDERICKSBRG  CLEAR     32  24  73 CALM      30.53R
ROCKSPRINGS    CLEAR     34  27  75 CALM      30.52R
HONDO          CLEAR     35  25  66 N7        30.56R WCI  29
UVALDE         CLEAR     41  28  59 NE5       30.55R WCI  38
DEL RIO        CLEAR     46  25  43 N3        30.52R
$$

SOUTHEAST TEXAS

CITY           SKY/WX    TMP DP  RH WIND       PRES   REMARKS
COLLEGE STN    CLEAR     37  26  64 N8        30.55R WCI  31
CALDWELL       CLEAR     36  27  69 N7        30.60R WCI  30
CROCKETT       CLEAR     39  27  60 N6        30.58R WCI  35
BRENHAM        CLEAR     40  29  65 N9        30.55R WCI  34
HUNTSVILLE     CLEAR     38  22  52 VRB3      30.53R
CONROE         CLEAR     40  22  48 N5        30.53R WCI  37
HOUSTON BUSH   CLEAR     43  26  51 N9        30.52R WCI  38
HOUSTON HOBBY  PTCLDY    45  26  47 N15       30.50R WCI  38
PERLAND        CLEAR     46  25  43 NE12      30.52R
WHARTON        CLEAR     38  31  74 NW7       30.53R WCI  33
$$

THE UPPER TEXAS COAST

CITY           SKY/WX    TMP DP  RH WIND       PRES   REMARKS
ORANGE         CLEAR     39  28  63 N6        30.52R WCI  35
PORT ARTHUR    CLEAR     41  24  51 N17       30.50R WCI  32
GALVESTON      CLEAR     46  29  51 N22G30    30.49R WCI  38
ANGLETON       CLEAR     42  31  64 N8        30.50R WCI  37
BAY CITY       CLEAR     43  32  66 N8        30.50R WCI  38
$$

TEXAS COASTAL BEND, RIO GRANDE PLAINS DEEP SOUTH TEXAS

CITY           SKY/WX    TMP DP  RH WIND       PRES   REMARKS
VICTORIA       CLEAR     41  29  62 N9        30.53R WCI  35
BEEVILLE       FAIR      43  27  54 N9        30.52R WCI  37
ROCKPORT       PTCLDY    46  28  49 N13       30.52R
PORT ARANSAS   MOCLDY    47  32  55 N16G22    30.50R
PORT LAVACA    CLEAR     40  32  71 N8        30.52R WCI  35
CORPUS CHRISTI MOCLDY    47  29  49 N18       30.51R WCI  40
KINGSVILLE NAS MOCLDY    48  31  51 N12       30.53R
COTULLA        CLEAR     46  27  47 N8        30.54R
LAREDO         PTCLDY    46  31  56 CALM      30.56R
BROWNSVILLE    CLOUDY    50  36  58 N12       30.48R
PORT ISABEL    CLOUDY    50  38  63 N15       30.48R
HEBBRONVILLE   MOCLDY   N/A N/A N/A NW6       30.53R
MCALLEN        CLOUDY    53  33  46 N14       30.51R
WESLACO        CLOUDY    51  34  52 N8G16     30.50R
FALFURRIAS     CLOUDY    50  27  40 N8        30.52R
EDINBURG       CLOUDY    53  34  48 CALM      30.51R
$$


USA.gov is the U.S. government's official web portal to all federal, state and local government web resources and services.